Weather History for Lee's Summit, MO

Change the Weather History Date:

Tuesday, January 22, 2013

  Actual Average (KMKC) Record (KMKC)
Temperature  
Mean Temperature 20 °F -  
Max Temperature 28 °F 37 °F 66 °F (2009)
Min Temperature 12 °F 21 °F 3 °F (2003)
Degree Days  
Heating Degree Days 45    
Moisture  
Dew Point 4 °F    
Average Humidity 53    
Maximum Humidity 68    
Minimum Humidity 38    
Precipitation  
Precipitation 0.00 in - - ()
Sea Level Pressure  
Sea Level Pressure 30.38 in    
Wind  
Wind Speed 7 mph (ENE)    
Max Wind Speed 12 mph    
Max Gust Speed 16 mph    
Visibility 10 miles    
Events      
Averages and records for this station are not official NWS values.
T = Trace of Precipitation, MM = Missing Value Source: NWS Daily Summary

Daily Weather History Graph

Daily Weather History Graph

Search for Another Location

Airport:

Trip Planner

Search our weather history database for the weather conditions in past years. The results will help you decide how hot, cold, wet, or windy it might be!

Date:

Astronomy

Jan. 22, 2013 Rise Set
Actual Time 7:31 AM CST 5:27 PM CST
Civil Twilight 7:02 AM CST 5:56 PM CST
Nautical Twilight 6:29 AM CST 6:28 PM CST
Astronomical Twilight 5:58 AM CST 7:00 PM CST
Moon 1:51 PM CST (1/22) 3:53 AM CST (1/22)
Length of Visible Light 10h 53m
Length of Day
9h 56m
Waxing Gibbous, 83% of the Moon is Illuminated
Jan 22
Waxing Gibbous
Jan 26
Full
Feb 3
Last Quarter
Feb 10
New
Feb 17
First Quarter

Hourly Weather History & Observations

Time (CST) Temp. Windchill Dew Point Humidity Pressure Visibility Wind Dir Wind Speed Gust Speed Precip Events Conditions
12:53 AM 16.0 °F 6.3 °F 3.0 °F 57% 30.41 in 10.0 mi NNE 6.9 mph - N/A   Overcast
1:53 AM 16.0 °F 7.4 °F 3.0 °F 57% 30.41 in 10.0 mi NE 5.8 mph - N/A   Overcast
2:53 AM 16.0 °F 6.3 °F 3.0 °F 57% 30.43 in 10.0 mi NNE 6.9 mph - N/A   Overcast
3:53 AM 16.0 °F 6.3 °F 1.9 °F 54% 30.40 in 10.0 mi NE 6.9 mph - N/A   Partly Cloudy
4:53 AM 15.1 °F 6.4 °F 3.0 °F 59% 30.40 in 10.0 mi NE 5.8 mph - N/A   Clear
5:53 AM 14.0 °F 6.5 °F 3.0 °F 62% 30.40 in 10.0 mi ENE 4.6 mph - N/A   Clear
6:53 AM 12.9 °F 3.8 °F 3.9 °F 67% 30.41 in 10.0 mi Variable 5.8 mph 155.4 mph N/A   Clear
7:53 AM 12.9 °F 2.6 °F 3.9 °F 67% 30.41 in 10.0 mi East 6.9 mph - N/A   Clear
8:53 AM 15.1 °F 1.8 °F 1.0 °F 54% 30.43 in 10.0 mi East 11.5 mph - N/A   Clear
9:53 AM 16.0 °F 5.3 °F 1.0 °F 52% 30.45 in 10.0 mi East 8.1 mph - N/A   Clear
10:53 AM 19.0 °F 7.5 °F -0.0 °F 43% 30.46 in 10.0 mi ENE 10.4 mph - N/A   Clear
11:53 AM 21.9 °F 14.5 °F 1.0 °F 40% 30.43 in 10.0 mi ENE 5.8 mph 16.1 mph N/A   Clear
12:53 PM 24.1 °F 19.7 °F 3.0 °F 40% 30.38 in 10.0 mi Variable 3.5 mph - N/A   Clear
1:53 PM 26.1 °F 19.4 °F 3.9 °F 39% 30.35 in 10.0 mi East 5.8 mph - N/A   Clear
2:53 PM 28.0 °F 20.0 °F 5.0 °F 38% 30.34 in 10.0 mi East 8.1 mph - N/A   Clear
3:53 PM 28.0 °F 19.3 °F 7.0 °F 41% 30.31 in 10.0 mi ESE 9.2 mph - N/A   Clear
4:53 PM 27.0 °F 20.5 °F 7.0 °F 43% 30.32 in 10.0 mi ESE 5.8 mph - N/A   Clear
5:53 PM 25.0 °F 20.7 °F 7.0 °F 46% 30.32 in 10.0 mi East 3.5 mph - N/A   Clear
6:53 PM 24.1 °F 17.0 °F 8.1 °F 51% 30.33 in 10.0 mi ENE 5.8 mph - N/A   Clear
7:53 PM 21.9 °F 14.5 °F 8.1 °F 55% 30.34 in 10.0 mi ENE 5.8 mph - N/A   Clear
8:53 PM 19.9 °F 10.1 °F 7.0 °F 57% 30.34 in 10.0 mi East 8.1 mph - N/A   Clear
9:53 PM 18.0 °F 7.7 °F 7.0 °F 62% 30.34 in 10.0 mi East 8.1 mph - N/A   Clear
10:53 PM 17.1 °F 8.7 °F 7.0 °F 65% 30.34 in 10.0 mi East 5.8 mph - N/A   Clear
11:53 PM 17.1 °F 7.6 °F 8.1 °F 68% 30.32 in 10.0 mi ESE 6.9 mph - N/A   Clear